DW1065 Weather Reports


time (UTC)temp
C
wind
direction
speed
KPH
gust
KPH
rain 1hr
cm
rain 24hr
cm
rain mn
cm
humidity
%
barometer
mb
20260502214505 8 158 0.0 3.2 3.56 8.56 8.48 91 1004.4
20260502214005 8 161 1.6 3.2 3.56 8.56 8.43 91 1004.4
20260502213505 9 158 0.0 3.2 3.56 8.56 8.41 91 1004.4
20260502213006 9 161 0.0 1.6 3.56 8.56 8.38 91 1004.5
20260502212504 9 147 0.0 1.6 3.56 8.56 8.36 91 1004.5
20260502212004 9 144 0.0 1.6 3.61 8.59 8.33 91 1004.4
20260502211506 9 160 0.0 1.6 3.56 8.59 8.31 91 1004.5
20260502210505 9 156 0.0 3.2 3.56 8.56 8.23 91 1004.4
20260502210006 9 156 0.0 3.2 3.56 8.56 8.20 91 1004.3
20260502205505 9 162 0.0 1.6 3.56 8.56 8.18 91 1004.2
20260502205005 9 154 0.0 4.8 3.56 8.56 8.15 91 1004.3
20260502204504 9 163 0.0 4.8 3.61 8.59 8.13 91 1004.3
20260502203505 9 157 1.6 8.0 3.56 8.56 8.05 91 1004.3
20260502203005 9 155 1.6 8.0 3.56 8.56 8.03 90 1004.3
20260502202505 10 176 1.6 8.0 3.56 8.56 8.00 90 1004.5
20260502202005 10 175 3.2 8.0 3.56 8.56 7.98 90 1004.5
20260502201505 10 168 1.6 8.0 3.61 8.59 7.95 90 1004.5
20260502201005 10 183 1.6 8.0 3.61 8.59 7.90 90 1004.6
20260502200504 10 196 3.2 8.0 3.56 8.59 7.87 90 1004.7
20260502200005 10 203 1.6 9.7 3.56 8.56 7.85 90 1004.7
20260502195505 10 201 3.2 9.7 3.56 8.56 7.82 89 1004.7
20260502195005 10 207 3.2 11.3 3.56 8.56 7.80 89 1004.7
20260502194505 10 202 3.2 11.3 3.56 8.56 7.75 88 1004.8
20260502194005 10 181 4.8 11.3 3.61 8.59 7.72 88 1004.8
20260502193505 10 164 4.8 12.9 3.61 8.59 7.70 88 1004.8
20260502193005 10 158 1.6 12.9 3.58 8.59 7.67 88 1004.8
20260502192505 10 196 3.2 9.7 3.58 8.56 7.65 87 1004.8
20260502192004 10 178 3.2 9.7 3.58 8.56 7.62 87 1004.8
20260502191505 10 156 4.8 9.7 3.58 8.56 7.57 87 1004.9
20260502191005 10 203 3.2 8.0 3.58 8.56 7.54 87 1004.8
20260502190505 10 212 3.2 8.0 3.63 8.59 7.52 87 1004.8
20260502190005 10 209 1.6 4.8 3.63 8.59 7.49 87 1004.8
20260502185506 10 201 1.6 4.8 3.58 8.56 7.47 87 1004.8
20260502185005 10 221 1.6 4.8 3.58 8.56 7.44 88 1004.6
20260502184505 11 244 0.0 3.2 3.58 8.56 7.39 88 1004.5
20260502183505 11 251 0.0 1.6 3.58 8.56 7.34 89 1004.5
20260502182506 11 268 0.0 1.6 3.61 8.59 7.29 89 1004.4
20260502182005 11 246 0.0 1.6 3.56 8.56 7.26 89 1004.5
20260502181504 11 244 0.0 1.6 3.56 8.56 7.21 88 1004.6
20260502181005 11 245 0.0 1.6 3.56 8.56 7.19 88 1004.7
20260502180504 11 266 0.0 1.6 3.56 8.56 7.16 88 1004.6
20260502170504 11 269 0.0 1.6 3.66 8.56 6.81 84 1004.9
20260502164004 12 261 0.0 3.2 3.66 8.59 6.65 81 1005.0
20260502163504 12 270 0.0 3.2 3.66 8.56 6.63 79 1005.2
20260502163004 12 253 1.6 3.2 3.66 8.56 6.60 77 1005.2
20260502162505 13 232 0.0 3.2 3.63 8.56 6.55 77 1005.2
20260502162005 13 233 1.6 4.8 3.61 8.56 6.53 74 1005.1
20260502161504 13 232 1.6 4.8 3.63 8.56 6.50 72 1005.1
20260502161004 13 254 1.6 4.8 3.61 8.56 6.48 70 1005.2
20260502160505 14 215 3.2 9.7 3.56 8.56 6.45 68 1005.4
20260502152005 16 194 8.0 12.9 3.56 8.56 6.17 58 1005.0
20260502151505 16 201 8.0 14.5 3.56 8.56 6.15 56 1005.0
20260502150505 16 204 8.0 19.3 3.61 8.56 6.10 56 1005.1
20260502130504 18 205 8.0 19.3 3.61 8.56 5.36 48 1005.8
20260502123504 18 232 3.2 14.5 3.56 8.53 5.18 44 1006.0
20260502123005 18 219 4.8 14.5 3.56 8.53 5.16 44 1006.0
20260502122506 18 224 4.8 14.5 3.56 8.53 5.13 43 1006.1
20260502122004 18 216 3.2 14.5 3.56 8.53 5.11 42 1006.0
20260502121505 18 278 3.2 14.5 3.61 8.53 5.08 42 1006.0
20260502120504 18 210 8.0 14.5 3.56 8.53 5.00 40 1006.3
20260502115505 18 232 9.7 19.3 3.56 8.53 4.95 40 1006.3
20260502115005 17 250 3.2 11.3 3.56 8.53 4.93 43 1006.4
20260502114504 17 250 3.2 9.7 3.56 8.53 4.90 42 1006.5
20260502114005 17 242 3.2 14.5 3.61 8.53 4.88 45 1006.6
20260502113504 17 225 4.8 14.5 3.56 8.53 4.83 43 1006.6
20260502113005 18 229 4.8 19.3 3.56 8.53 4.80 44 1006.5
20260502112005 18 251 3.2 8.0 3.56 8.53 4.75 45 1006.8
20260502111505 18 232 3.2 20.9 3.56 8.53 4.72 45 1006.8
20260502110005 18 209 6.4 20.9 3.61 8.53 4.62 46 1007.0
20260502105504 18 218 4.8 14.5 3.56 8.53 4.60 46 1007.0
20260502105005 18 208 4.8 16.1 3.56 8.53 4.57 46 1007.0
20260502104504 18 210 6.4 16.1 3.56 8.53 4.55 46 1007.0
20260502103505 18 250 4.8 19.3 3.61 8.53 4.47 47 1007.1
20260502103005 18 235 4.8 22.5 3.61 8.53 4.45 46 1007.2
20260502101504 18 257 4.8 20.9 3.56 8.53 4.37 47 1007.1
20260502101006 18 211 6.4 20.9 3.56 8.53 4.32 48 1007.1
20260502100504 18 277 3.2 14.5 3.56 8.53 4.29 49 1007.2
20260502091505 17 198 8.0 19.3 3.56 8.53 4.01 49 1007.6
20260502091006 17 221 8.0 14.5 3.56 8.53 3.96 50 1007.6
20260502090504 17 222 4.8 14.5 3.56 8.53 3.94 50 1007.7
20260502071504 14 205 4.8 14.5 3.56 8.53 3.28 56 1008.9
20260502071004 13 205 4.8 12.9 3.56 8.53 3.25 58 1009.0
20260502070504 13 197 4.8 12.9 3.61 8.53 3.23 58 1009.0
20260502070005 13 201 4.8 12.9 3.56 8.53 3.20 59 1009.0
20260502065505 13 188 4.8 11.3 3.56 8.53 3.17 60 1009.0
20260502065004 12 223 3.2 11.3 3.56 8.53 3.15 60 1009.1
20260502064505 12 212 6.4 12.9 3.56 8.53 3.10 61 1009.1
20260502064006 12 227 6.4 14.5 3.56 8.53 3.07 61 1009.1
20260502063005 12 203 6.4 14.5 3.61 8.53 3.02 63 1009.2
20260502062506 11 201 4.8 14.5 3.56 8.53 3.00 64 1009.2
20260502062004 11 228 4.8 16.1 3.56 8.53 2.97 64 1009.2
20260502061504 11 215 8.0 19.3 3.56 8.53 2.92 64 1009.3
20260502061004 11 224 6.4 19.3 3.56 8.53 2.90 65 1009.3
20260502060504 11 206 6.4 19.3 3.56 8.53 2.87 66 1009.4
20260502060005 11 210 8.0 19.3 3.61 8.56 2.84 66 1009.3
20260502055005 10 211 4.8 16.1 3.56 8.53 2.79 67 1009.4
20260502054504 10 196 6.4 12.9 3.56 8.53 2.74 68 1009.5
20260502054004 10 207 4.8 16.1 3.56 8.53 2.72 68 1009.6
20260502053504 10 203 9.7 19.3 3.56 8.53 2.69 68 1009.6
20260502053005 10 201 8.0 19.3 3.56 8.53 2.67 68 1009.5
20260502052506 9 236 4.8 19.3 3.61 8.53 2.64 68 1009.6
20260502051504 8 210 4.8 19.3 3.56 8.53 2.57 69 1009.6
20260502051006 8 195 8.0 19.3 3.56 8.53 2.54 70 1009.6
20260502050504 8 197 8.0 19.3 3.56 8.53 25.25 72 1009.7
20260502045504 8 203 4.8 14.5 3.56 8.53 24.64 73 1009.7
20260502044504 8 198 4.8 12.9 3.56 8.53 24.08 73 1009.8
20260502044006 8 209 4.8 9.7 3.56 8.53 23.77 73 1009.9
20260502043504 8 202 4.8 12.9 3.56 8.53 23.47 73 1009.8
20260502043004 8 192 4.8 12.9 3.56 8.53 23.16 72 1009.8
20260502042505 8 185 4.8 11.3 3.56 8.53 22.86 72 1009.8
20260502042005 8 202 4.8 11.3 3.61 8.53 22.61 72 1009.8
20260502041004 8 208 3.2 9.7 3.56 8.53 22.00 71 1009.8
20260502040004 8 202 4.8 9.7 3.56 8.53 21.39 70 1010.0
20260502035504 8 208 3.2 9.7 3.56 8.53 21.08 70 1010.1
20260502034504 8 201 4.8 12.9 3.61 8.53 20.52 69 1010.3
20260502034004 8 214 4.8 12.9 3.61 8.53 20.22 69 1010.4
20260502033504 8 202 4.8 12.9 3.56 8.53 19.91 69 1010.4
20260502033005 8 198 6.4 12.9 3.56 8.53 19.61 69 1010.5
20260502032504 8 194 4.8 12.9 3.56 8.53 19.30 69 1010.6
20260502032006 8 203 4.8 14.5 3.56 8.53 19.00 69 1010.5
20260502031504 8 197 4.8 14.5 3.56 8.53 18.69 69 1010.5
20260502031004 8 213 8.0 14.5 3.61 8.53 18.44 69 1010.6
20260502030505 8 218 8.0 14.5 3.61 8.53 18.14 69 1010.6
20260502030004 8 210 8.0 14.5 3.56 8.53 17.83 70 1010.7
20260502025006 8 198 8.0 14.5 3.56 8.53 17.22 71 1011.0
20260502024504 8 203 6.4 16.1 3.56 8.53 16.92 72 1011.0
20260502024004 8 207 6.4 16.1 3.56 8.53 16.61 72 1011.0
20260502023504 8 235 6.4 14.5 3.61 8.53 16.36 73 1011.0
20260502023005 7 192 4.8 12.9 3.61 8.53 16.05 74 1011.1
20260502022505 7 204 3.2 12.9 3.56 8.53 15.75 75 1011.2
20260502022005 7 211 3.2 12.9 3.56 8.53 15.44 75 1011.1
20260502021504 7 203 1.6 11.3 3.56 8.53 15.14 76 1011.3
20260502021005 7 193 3.2 8.0 3.56 8.53 14.83 76 1011.3
20260502020505 7 199 3.2 8.0 3.56 8.53 14.53 76 1011.4
20260502020004 7 202 1.6 9.7 3.61 8.53 14.27 77 1011.4
20260502015504 7 207 1.6 9.7 3.56 8.53 13.97 77 1011.4
20260502015005 7 187 1.6 9.7 3.56 8.53 13.67 77 1011.5
20260502014505 7 178 1.6 8.0 3.56 8.53 13.36 78 1011.6
20260502014005 7 175 1.6 8.0 3.56 8.53 13.06 78 1011.7
20260502013506 7 154 3.2 8.0 3.56 8.53 12.75 77 1011.8
20260502013004 7 196 1.6 4.8 3.56 8.53 12.45 76 1011.8
20260502012004 7 217 0.0 4.8 3.56 8.53 11.89 76 1011.9
20260502011504 7 187 1.6 4.8 3.56 8.53 11.58 76 1011.9
20260502011004 7 192 3.2 11.3 3.56 8.53 11.28 76 1011.9
20260502010505 7 214 3.2 11.3 3.56 8.53 10.97 76 1011.9
20260502010004 8 201 1.6 4.8 3.56 8.53 10.67 76 1012.0
20260502005505 8 157 0.0 4.8 3.61 8.53 10.41 77 1012.0
20260502005004 8 159 1.6 8.0 3.61 8.53 10.11 77 1012.1
20260502004504 8 159 1.6 8.0 3.56 8.53 9.80 77 1012.1
20260502004004 8 164 3.2 8.0 3.56 8.53 9.50 77 1012.2
20260502003503 8 166 3.2 9.7 3.56 8.53 9.19 76 1012.3
20260502003005 8 204 3.2 9.7 3.56 8.53 8.89 77 1012.2
20260502002504 8 177 3.2 9.7 3.56 8.53 8.59 76 1012.3
20260502001504 8 180 1.6 12.9 3.61 8.53 8.03 76 1012.3
20260502001004 8 170 3.2 12.9 3.56 8.53 7.72 77 1012.3
20260502000504 8 179 1.6 4.8 3.56 8.53 7.42 77 1012.4
20260502000004 8 167 1.6 4.8 3.56 8.53 7.11 77 1012.4
20260501235504 8 166 1.6 4.8 3.56 8.53 6.81 77 1012.4
20260501235005 8 215 1.6 4.8 3.56 8.53 6.50 77 1012.4
20260501234505 8 187 3.2 4.8 3.61 8.53 6.25 77 1012.4
20260501234005 8 196 1.6 4.8 3.61 8.53 5.94 77 1012.5
20260501233504 8 211 3.2 4.8 3.56 8.53 5.64 77 1012.6
20260501233004 8 200 3.2 8.0 3.56 8.53 5.33 76 1012.6
20260501232005 8 200 3.2 9.7 3.56 8.53 4.72 76 1012.7
20260501231504 8 206 3.2 9.7 3.56 8.53 4.42 76 1012.8
20260501231005 8 193 1.6 11.3 3.61 8.53 4.17 76 1012.7
20260501230005 8 192 4.8 12.9 3.56 8.53 3.56 75 1012.7
20260501225504 8 207 3.2 12.9 3.51 8.53 3.25 75 1012.7
20260501225004 9 179 4.8 9.7 3.51 8.53 2.95 75 1012.8
20260501224505 9 207 3.2 11.3 3.51 8.53 2.64 74 1012.9
20260501224005 9 201 3.2 11.3 3.51 8.53 2.34 74 1012.9
20260501223505 9 179 4.8 11.3 3.56 8.53 2.08 73 1012.9
20260501223004 9 180 4.8 12.9 3.56 8.53 1.78 73 1012.9
20260501222504 9 172 6.4 14.5 3.56 8.53 1.47 72 1012.9
20260501222005 9 174 6.4 16.1 3.51 8.53 1.17 72 1012.9
20260501221004 10 166 8.0 16.1 3.51 8.53 0.56 71 1013.0
20260501220505 10 170 8.0 14.5 3.51 8.53 0.25 70 1013.0
20260501215504 10 159 4.8 16.1 3.56 8.56 8.53 68 1013.0
20260501215005 10 176 4.8 16.1 3.56 8.56 8.48 68 1013.0